User: anonymous   Login
Location: Newark
(43.2700°N, 11.0700°E)
Time: 04:40:21
(UTC+00:00)
Language:

AO-92 - Orbit

View from above orbital plane
View from above orbital plane
View from above satellite
View from above satellite

Ground track
Ground track

The orbit data is extracted from the following two-line orbital elements,

1 43137U 18004AC  21289.15773279  .00003388  00000-0  13519-3 0  9998
2 43137  97.3971   1.9271 0009747 138.2640 221.9344 15.25816555209062
Epoch (UTC): 16 October 2021 03:47:08
Eccentricity: 0.0009747
inclination: 97.3971°
perigee height: 481 km
apogee height: 495 km
right ascension of ascending node: 1.9271°
argument of perigee: 138.2640°
revolutions per day: 15.25816555
mean anomaly at epoch: 221.9344°
orbit number at epoch: 20906

The dashed part of the orbit path shows where the satellite is in the earth's shadow,  

DLR